Willmar, MN

12:05 PM CST on December 11, 2017 (GMT -0600)
Willmar

Weather History for KBDH - May, 2013

Change the Weather History Date:

Monday, May 20, 2013

  Actual Average (KBBB) Record (KBBB)
Temperature  
Mean Temperature 66 °F -  
Max Temperature 71 °F 73 °F 93 °F (1975)
Min Temperature 62 °F 46 °F 29 °F (1967)
Cooling Degree Days 2    
Growing Degree Days 16 (Base 50)    
Moisture  
Dew Point 58 °F    
Average Humidity 77    
Maximum Humidity 94    
Minimum Humidity 56    
Precipitation  
Precipitation 0.58 in - - ()
Sea Level Pressure  
Sea Level Pressure 29.51 in    
Wind  
Wind Speed 6 mph (SSE)    
Max Wind Speed 13 mph    
Max Gust Speed 23 mph    
Visibility 8 miles    
Events Rain    
Averages and records for this station are not official NWS values.
T = Trace of Precipitation, MM = Missing Value Source: NWS Daily Summary

Daily Weather History Graph

Daily Weather History Graph

Search for Another Location

Airport or City:

Trip Planner

Search our weather history database for the weather conditions in past years. The results will help you decide how hot, cold, wet, or windy it might be!

Date:

Astronomy

May. 20, 2013 Rise Set
Actual Time 5:45 AM CDT 8:49 PM CDT
Civil Twilight 5:10 AM CDT 9:24 PM CDT
Nautical Twilight 4:25 AM CDT 10:09 PM CDT
Astronomical Twilight 3:31 AM CDT 11:04 PM CDT
Moon 3:45 PM CDT (5/20) 2:54 AM CDT (5/20)
Length of Visible Light 16h 13m
Length of Day
15h 03m
Waxing Gibbous, 75% of the Moon is Illuminated
May 20
Waxing Gibbous
May 24
Full
May 31
Last Quarter
Jun 8
New
Jun 16
First Quarter

Hourly Weather History & Observations

Time (CDT) Temp. Dew Point Humidity Pressure Visibility Wind Dir Wind Speed Gust Speed Precip Events Conditions
12:15 AM 62.6 °F 60.8 °F 94% 29.57 in 4.0 mi Calm Calm - N/A   Clear
12:35 AM 62.6 °F 59.0 °F 88% 29.57 in 3.0 mi ENE 3.5 mph - N/A   Clear
12:55 AM 62.6 °F 59.0 °F 88% 29.57 in 3.0 mi ENE 3.5 mph - N/A   Clear
1:15 AM 62.6 °F 60.8 °F 94% 29.55 in 4.0 mi East 5.8 mph - N/A   Clear
1:35 AM 64.4 °F 60.8 °F 88% 29.53 in 4.0 mi East 6.9 mph - N/A   Clear
1:55 AM 64.4 °F 60.8 °F 88% 29.52 in 5.0 mi East 4.6 mph - N/A   Clear
2:15 AM 64.4 °F 59.0 °F 83% 29.52 in 7.0 mi East 3.5 mph - N/A   Mostly Cloudy
2:35 AM 64.4 °F 59.0 °F 83% 29.52 in 7.0 mi East 4.6 mph - N/A   Overcast
3:15 AM 64.4 °F 60.8 °F 88% 29.51 in 1.5 mi ENE 11.5 mph - 0.45 in Rain Heavy Rain
3:35 AM 66.2 °F 60.8 °F 83% 29.50 in 10.0 mi ESE 8.1 mph 17.3 mph 0.54 in Rain Light Rain
3:55 AM 64.4 °F 60.8 °F 88% 29.50 in 5.0 mi ESE 6.9 mph - 0.54 in Rain Light Rain
4:15 AM 64.4 °F 60.8 °F 88% 29.49 in 7.0 mi SE 8.1 mph - N/A   Light Drizzle
4:35 AM 64.4 °F 60.8 °F 88% 29.49 in 7.0 mi SE 9.2 mph - 0.01 in Rain Rain
4:55 AM 64.4 °F 60.8 °F 88% 29.49 in 7.0 mi SE 10.4 mph - 0.02 in Rain Rain
5:15 AM 64.4 °F 60.8 °F 88% 29.50 in 7.0 mi SE 10.4 mph - 0.01 in Rain Light Rain
5:35 AM 64.4 °F 60.8 °F 88% 29.50 in 5.0 mi SE 10.4 mph - 0.01 in Rain Light Rain
5:55 AM 62.6 °F 60.8 °F 94% 29.49 in 5.0 mi SSE 10.4 mph - 0.01 in Rain Light Rain
6:15 AM 62.6 °F 60.8 °F 94% 29.49 in 7.0 mi SSE 9.2 mph - N/A   Drizzle
6:35 AM 62.6 °F 60.8 °F 94% 29.49 in 5.0 mi SE 9.2 mph - N/A   Light Drizzle
7:15 AM 62.6 °F 60.8 °F 94% 29.49 in 5.0 mi SE 8.1 mph - N/A Rain Light Rain
7:35 AM 62.6 °F 60.8 °F 94% 29.50 in 5.0 mi SE 6.9 mph - N/A Rain Light Rain
7:55 AM 64.4 °F 60.8 °F 88% 29.50 in 5.0 mi SE 10.4 mph - N/A Rain Light Rain
8:15 AM 64.4 °F 60.8 °F 88% 29.50 in 5.0 mi SSE 10.4 mph - N/A   Overcast
8:35 AM 64.4 °F 60.8 °F 88% 29.49 in 5.0 mi SE 6.9 mph - N/A   Mostly Cloudy
9:15 AM 64.4 °F 60.8 °F 88% 29.49 in 7.0 mi SSE 8.1 mph - N/A   Mostly Cloudy
9:35 AM 64.4 °F 62.6 °F 94% 29.49 in 7.0 mi SSE 6.9 mph 16.1 mph N/A   Mostly Cloudy
9:55 AM 66.2 °F 60.8 °F 83% 29.49 in 10.0 mi South 8.1 mph 16.1 mph N/A   Overcast
10:35 AM 68.0 °F 59.0 °F 73% 29.49 in 10.0 mi SSW 5.8 mph - N/A   Mostly Cloudy
10:55 AM 66.2 °F 57.2 °F 73% 29.49 in 7.0 mi South 6.9 mph - N/A   Mostly Cloudy
11:15 AM 68.0 °F 57.2 °F 68% 29.49 in 10.0 mi South 5.8 mph - N/A   Scattered Clouds
11:35 AM 69.8 °F 57.2 °F 64% 29.49 in 10.0 mi SSW 8.1 mph 18.4 mph N/A   Scattered Clouds
11:55 AM 68.0 °F 57.2 °F 68% 29.49 in 10.0 mi South 5.8 mph - N/A   Mostly Cloudy
12:15 PM 68.0 °F 57.2 °F 68% 29.50 in 10.0 mi SSW 8.1 mph 17.3 mph N/A   Mostly Cloudy
12:35 PM 66.2 °F 57.2 °F 73% 29.50 in 10.0 mi SSW 9.2 mph 20.7 mph N/A   Mostly Cloudy
12:55 PM 68.0 °F 57.2 °F 68% 29.50 in 10.0 mi SSW 9.2 mph 17.3 mph N/A   Mostly Cloudy
1:15 PM 69.8 °F 57.2 °F 64% 29.50 in 10.0 mi SSW 10.4 mph 19.6 mph N/A   Mostly Cloudy
1:55 PM 69.8 °F 57.2 °F 64% 29.50 in 10.0 mi SSW 6.9 mph - N/A   Mostly Cloudy
2:15 PM 68.0 °F 57.2 °F 68% 29.50 in 10.0 mi SSW 8.1 mph - N/A   Mostly Cloudy
2:35 PM 68.0 °F 57.2 °F 68% 29.51 in 10.0 mi SSW 9.2 mph 23.0 mph N/A   Mostly Cloudy
2:55 PM 66.2 °F 53.6 °F 64% 29.52 in 10.0 mi SSW 8.1 mph 18.4 mph N/A   Mostly Cloudy
3:15 PM 68.0 °F 53.6 °F 60% 29.51 in 10.0 mi SSW 9.2 mph 16.1 mph N/A   Mostly Cloudy
3:35 PM 71.6 °F 55.4 °F 57% 29.51 in 10.0 mi SSW 8.1 mph 18.4 mph 0.01 in   Scattered Clouds
3:55 PM 69.8 °F 55.4 °F 60% 29.51 in 10.0 mi SSW 6.9 mph - 0.01 in   Scattered Clouds
4:15 PM 69.8 °F 53.6 °F 56% 29.51 in 10.0 mi SSW 6.9 mph - N/A   Scattered Clouds
4:35 PM 69.8 °F 53.6 °F 56% 29.52 in 10.0 mi SSW 8.1 mph - N/A   Scattered Clouds
4:55 PM 68.0 °F 51.8 °F 56% 29.52 in 10.0 mi SSW 8.1 mph 16.1 mph N/A   Mostly Cloudy
5:15 PM 66.2 °F 51.8 °F 60% 29.52 in 10.0 mi SSW 5.8 mph - N/A   Scattered Clouds
5:35 PM 68.0 °F 51.8 °F 56% 29.52 in 10.0 mi SSW 6.9 mph - N/A   Clear
5:55 PM 68.0 °F 53.6 °F 60% 29.52 in 10.0 mi SSW 4.6 mph - N/A   Scattered Clouds
6:15 PM 64.4 °F 55.4 °F 73% 29.53 in 7.0 mi South 3.5 mph 20.7 mph N/A Rain Light Rain
6:35 PM 64.4 °F 55.4 °F 73% 29.53 in 10.0 mi SSW 3.5 mph - N/A   Clear
6:55 PM 66.2 °F 55.4 °F 68% 29.53 in 10.0 mi Calm Calm - N/A   Clear
7:15 PM 66.2 °F 53.6 °F 64% 29.53 in 10.0 mi Calm Calm - N/A   Scattered Clouds
7:35 PM 66.2 °F 55.4 °F 68% 29.53 in 10.0 mi Calm Calm - N/A   Mostly Cloudy
7:55 PM 66.2 °F 57.2 °F 73% 29.52 in 10.0 mi SE 4.6 mph - N/A   Scattered Clouds
8:15 PM 66.2 °F 57.2 °F 73% 29.53 in 10.0 mi SE 4.6 mph - N/A   Scattered Clouds
8:35 PM 66.2 °F 55.4 °F 68% 29.53 in 10.0 mi SSE 4.6 mph - N/A   Overcast
9:15 PM 64.4 °F 55.4 °F 73% 29.53 in 10.0 mi ESE 8.1 mph - N/A   Overcast
9:35 PM 64.4 °F 55.4 °F 73% 29.53 in 10.0 mi SE 12.7 mph - N/A   Overcast
9:55 PM 62.6 °F 55.4 °F 77% 29.53 in 10.0 mi ESE 9.2 mph - N/A   Overcast
10:15 PM 62.6 °F 55.4 °F 77% 29.54 in 10.0 mi ESE 10.4 mph 16.1 mph N/A   Overcast
10:35 PM 62.6 °F 55.4 °F 77% 29.53 in 10.0 mi ESE 9.2 mph - N/A   Overcast
10:55 PM 62.6 °F 55.4 °F 77% 29.52 in 10.0 mi ESE 8.1 mph - N/A   Overcast
11:15 PM 62.6 °F 55.4 °F 77% 29.52 in 10.0 mi ESE 6.9 mph - N/A   Overcast
11:35 PM 62.6 °F 55.4 °F 77% 29.51 in 10.0 mi ESE 6.9 mph - N/A   Overcast
11:55 PM 62.6 °F 55.4 °F 77% 29.52 in 10.0 mi ESE 8.1 mph - N/A   Overcast